Location: Camaret
(48.2753°N, 4.5961°W)
Time: 01:10:04
(UTC+00:00)

Helios 1A Rocket - Pass Details

Date: 29 October 2020
Orbit: 562 x 587 km, 98.3° (Epoch: 26 November)

Event Time Altitude Azimuth Distance (km) Brightness Sun altitude
Rises 18:48:55 0° 171° (S) 2,793 6.3 -18.0°
Reaches altitude 10° 18:51:05 10° 175° (S) 1,895 5.5 -18.4°
Maximum altitude 18:55:10 65° 257° (WSW) 639 3.3 -19.0°
Drops below altitude 10° 18:59:15 10° 340° (NNW) 1,897 5.8 -19.7°
Sets 19:01:25 0° 344° (NNW) 2,796 6.7 -20.1°
